DELTA 1 DEB

Satellite information

Favourite Embed

Satellite Type and Status

DEBRISIN ORBIT

Key statistics

Satellite DELTA 1 DEB at a glance.

Uptime

18035

Days in orbit

Revolutions

≈ 12.4

Per day

Orbit

SSO

Sun Synchronous Orbit

Inclination

101.1

Latest

Satellite identification and parameters

Extended collection of information and parameters for DELTA 1 DEB.

Object identification

Identified? True

Debris? True

Object name: DELTA 1 DEB

International designator: 1976-077BD

Object number (NORAD): 10756

Object ID (CCSDS): 10756

Country: UNITED STATES OF AMERICA (US)

Current information (Y/N): Y

RCS size: SMALL

Orbital parameters

Period: 115.98 minutes

Inclination: 101.0897 deg

SMA: 7877.984 km

Apoapsis: 1628.086 km

Periapsis: 1371.612 km

RAAN: 198.8458 deg

Eccentricy: 0.01627787

Argument of periapsis: 102.6229 deg

Mean anomaly: 259.3095 deg

Mean motion: 12.41595478 rev/day

Mean motion (dot): 0.00000687 rev/day2

B* drag term: 0.0050796315 1/REarth

Two-line elements (TLE)

Creation date: Dec. 11, 2025, 10:54 a.m.

Reference frame: TEME

Reference center: EARTH

Epoch: Dec. 11, 2025, 3:28 a.m. UTC

TLE line 0: 0 DELTA 1 DEB

TLE line 1: 1 10756U 76077BD 25345.14450358 .00000687 00000-0 50796-2 0 9995

TLE line 2: 2 10756 101.0897 198.8458 0162779 102.6229 259.3095 12.41595478216608

Live tracking on map

Real-time ground track for satellite DELTA 1 DEB.

In-orbit conjunctions

A list of the most updated potential collisions computed for object DELTA 1 DEB.

Target Orbit TCA Probability of collision Miss distance Type
COSMOS 2066 LEO 2024-06-10 21:19:30 0.0005339126 121.0 (m) PAYLOAD

Associated space launch

Meteorological satellite using radiometric imaging

DELTA 1 DEB was lifted into orbit during the mission ‘Delta 2310 | NOAA 5’, on board a Delta 2310 space rocket.

The launch took place on July 29, 1976, 5:07 p.m. from Space Launch Complex 2W.

For more information about the launch, click the button.

Launch to space Delta 2310 | NOAA 5
Delta 2310 | NOAA 5

Agency: N/A

Status: Launch Successful

Launch date: July 29, 1976, 5:07 p.m. UTC

Rocket: Delta 2310

Launch pad: Space Launch Complex 2W

Location: Vandenberg SFB, CA, USA

...

Latest news about this satellite

There are no fresh news available about this satellite. Check back as we update our databases every day.


Newsletter sign-up

Weekly statistics, charts and insights to help you stay on top of the space industry.